Time,TemperatureF,DewpointF,PressureIn,WindDirection,WindDirectionDegrees,WindSpeedMPH,WindSpeedGustMPH,Humidity,HourlyPrecipIn,Conditions,Clouds,dailyrainin,SolarRadiationWatts/m^2,SoftwareType,DateUTC
2013-01-10 00:09:00,29.9,28.0,31.26,NNE,17,6.0,16.0,93,0.00,,,0.00,0,weatherlink.com 1.10,2013-01-10 07:09:00,
2013-01-10 00:24:00,29.5,28.0,31.26,North,5,13.0,14.0,93,0.00,,,0.00,0,weatherlink.com 1.10,2013-01-10 07:24:00,
2013-01-10 00:39:00,29.2,28.0,31.27,NE,34,3.0,15.0,93,0.00,,,0.00,0,weatherlink.com 1.10,2013-01-10 07:39:00,
2013-01-10 00:54:00,29.3,28.0,31.27,NE,39,8.0,14.0,93,0.00,,,0.00,0,weatherlink.com 1.10,2013-01-10 07:54:00,
2013-01-10 01:09:00,29.0,27.0,31.26,NNE,30,6.0,14.0,93,0.00,,,0.00,0,weatherlink.com 1.10,2013-01-10 08:09:00,
2013-01-10 01:24:00,29.0,27.0,31.27,NNE,25,5.0,14.0,93,0.00,,,0.00,0,weatherlink.com 1.10,2013-01-10 08:24:00,
2013-01-10 01:39:00,28.7,27.0,31.28,North,5,5.0,11.0,93,0.00,,,0.00,0,weatherlink.com 1.10,2013-01-10 08:39:00,
2013-01-10 01:54:00,28.8,27.0,31.28,North,5,2.0,7.0,93,0.00,,,0.00,0,weatherlink.com 1.10,2013-01-10 08:54:00,
2013-01-10 02:09:00,28.9,27.0,31.28,NNE,22,5.0,7.0,93,0.00,,,0.00,0,weatherlink.com 1.10,2013-01-10 09:09:00,
2013-01-10 02:24:00,28.9,27.0,31.29,NNE,13,3.0,6.0,93,0.00,,,0.00,0,weatherlink.com 1.10,2013-01-10 09:24:00,
2013-01-10 02:39:00,28.8,27.0,31.29,NNW,344,4.0,8.0,93,0.00,,,0.00,0,weatherlink.com 1.10,2013-01-10 09:39:00,
2013-01-10 02:54:00,28.7,27.0,31.29,North,355,6.0,7.0,93,0.00,,,0.00,0,weatherlink.com 1.10,2013-01-10 09:54:00,
2013-01-10 03:09:00,28.5,27.0,31.29,North,5,3.0,9.0,93,0.00,,,0.00,0,weatherlink.com 1.10,2013-01-10 10:09:00,
2013-01-10 03:24:00,28.6,27.0,31.29,NE,44,2.0,8.0,93,0.00,,,0.00,0,weatherlink.com 1.10,2013-01-10 10:24:00,
2013-01-10 03:39:00,28.7,27.0,31.28,NNW,342,5.0,8.0,93,0.00,,,0.00,0,weatherlink.com 1.10,2013-01-10 10:39:00,
2013-01-10 03:54:00,28.5,27.0,31.28,North,5,0.0,3.0,93,0.00,,,0.00,0,weatherlink.com 1.10,2013-01-10 10:54:00,
2013-01-10 04:09:00,28.5,27.0,31.27,NNE,14,2.0,4.0,93,0.00,,,0.00,0,weatherlink.com 1.10,2013-01-10 11:09:00,
2013-01-10 04:24:00,28.4,27.0,31.27,North,5,0.0,6.0,93,0.00,,,0.00,0,weatherlink.com 1.10,2013-01-10 11:24:00,
2013-01-10 04:39:00,28.4,27.0,31.28,NNE,19,0.0,2.0,93,0.00,,,0.00,0,weatherlink.com 1.10,2013-01-10 11:39:00,
2013-01-10 04:54:00,28.4,27.0,31.28,NNE,26,0.0,3.0,93,0.00,,,0.00,0,weatherlink.com 1.10,2013-01-10 11:54:00,
2013-01-10 05:09:00,28.4,27.0,31.27,North,9,4.0,9.0,93,0.00,,,0.00,0,weatherlink.com 1.10,2013-01-10 12:09:00,
2013-01-10 05:24:00,28.3,27.0,31.27,NE,44,2.0,6.0,93,0.00,,,0.00,0,weatherlink.com 1.10,2013-01-10 12:24:00,
2013-01-10 05:39:00,28.4,27.0,31.27,NNE,15,3.0,4.0,93,0.00,,,0.00,0,weatherlink.com 1.10,2013-01-10 12:39:00,
2013-01-10 05:54:00,28.4,27.0,31.28,NNE,22,2.0,5.0,93,0.00,,,0.00,0,weatherlink.com 1.10,2013-01-10 12:54:00,
2013-01-10 06:09:00,28.3,27.0,31.27,NW,323,4.0,6.0,93,0.00,,,0.00,0,weatherlink.com 1.10,2013-01-10 13:09:00,
2013-01-10 06:24:00,28.2,27.0,31.28,North,355,1.0,4.0,93,0.00,,,0.00,0,weatherlink.com 1.10,2013-01-10 13:24:00,
2013-01-10 06:39:00,28.1,26.0,31.27,NNE,22,2.0,6.0,93,0.00,,,0.00,0,weatherlink.com 1.10,2013-01-10 13:39:00,
2013-01-10 06:55:00,27.9,26.0,31.27,NNE,14,6.0,7.0,93,0.00,,,0.00,0,weatherlink.com 1.10,2013-01-10 13:55:00,
2013-01-10 07:10:00,27.8,26.0,31.27,North,5,4.0,7.0,93,0.00,,,0.00,0,weatherlink.com 1.10,2013-01-10 14:10:00,
2013-01-10 07:25:00,27.7,26.0,31.28,NNE,14,3.0,9.0,93,0.00,,,0.00,0,weatherlink.com 1.10,2013-01-10 14:25:00,
2013-01-10 07:40:00,27.2,26.0,31.29,NNE,21,4.0,11.0,93,0.00,,,0.00,0,weatherlink.com 1.10,2013-01-10 14:40:00,
2013-01-10 07:55:00,26.9,25.0,31.29,NNE,30,8.0,11.0,93,0.00,,,0.00,0,weatherlink.com 1.10,2013-01-10 14:55:00,
2013-01-10 08:10:00,26.7,25.0,31.29,NNE,19,7.0,14.0,93,0.00,,,0.00,0,weatherlink.com 1.10,2013-01-10 15:10:00,
2013-01-10 08:25:00,26.7,25.0,31.28,NNW,331,4.0,9.0,93,0.00,,,0.00,0,weatherlink.com 1.10,2013-01-10 15:25:00,
2013-01-10 08:40:00,26.8,25.0,31.28,North,9,6.0,11.0,93,0.00,,,0.00,0,weatherlink.com 1.10,2013-01-10 15:40:00,
2013-01-10 08:55:00,26.8,25.0,31.28,NNE,17,7.0,10.0,93,0.00,,,0.00,5,weatherlink.com 1.10,2013-01-10 15:55:00,
2013-01-10 09:10:00,26.6,25.0,31.28,NNE,32,5.0,10.0,93,0.00,,,0.00,7,weatherlink.com 1.10,2013-01-10 16:10:00,
2013-01-10 09:25:00,26.7,25.0,31.28,NNE,31,6.0,12.0,93,0.00,,,0.00,11,weatherlink.com 1.10,2013-01-10 16:25:00,
2013-01-10 09:40:00,26.8,25.0,31.29,North,11,5.0,9.0,93,0.00,,,0.00,12,weatherlink.com 1.10,2013-01-10 16:40:00,
2013-01-10 09:55:00,26.8,25.0,31.30,North,360,6.0,10.0,93,0.00,,,0.00,11,weatherlink.com 1.10,2013-01-10 16:55:00,
2013-01-10 10:10:00,26.7,25.0,31.31,NNW,343,6.0,9.0,93,0.00,,,0.00,14,weatherlink.com 1.10,2013-01-10 17:10:00,
2013-01-10 10:25:00,26.5,25.0,31.31,NNW,343,3.0,10.0,93,0.00,,,0.00,18,weatherlink.com 1.10,2013-01-10 17:25:00,
2013-01-10 10:40:00,26.3,25.0,31.31,NW,321,6.0,8.0,93,0.00,,,0.00,28,weatherlink.com 1.10,2013-01-10 17:40:00,
2013-01-10 10:55:00,25.9,24.0,31.30,WNW,300,9.0,12.0,93,0.00,,,0.00,46,weatherlink.com 1.10,2013-01-10 17:55:00,
2013-01-10 11:10:00,26.3,25.0,31.30,North,351,5.0,5.0,93,0.00,,,0.00,62,weatherlink.com 1.10,2013-01-10 18:10:00,
2013-01-10 11:25:00,26.7,25.0,31.29,North,5,5.0,7.0,93,0.00,,,0.00,77,weatherlink.com 1.10,2013-01-10 18:25:00,
2013-01-10 11:40:00,26.7,25.0,31.29,North,11,9.0,9.0,93,0.00,,,0.00,98,weatherlink.com 1.10,2013-01-10 18:40:00,
2013-01-10 11:55:00,26.5,25.0,31.30,North,5,4.0,13.0,93,0.00,,,0.00,72,weatherlink.com 1.10,2013-01-10 18:55:00,
2013-01-10 12:10:00,26.2,25.0,31.29,NNE,22,4.0,10.0,93,0.00,,,0.00,74,weatherlink.com 1.10,2013-01-10 19:10:00,
2013-01-10 12:25:00,26.2,25.0,31.29,North,360,4.0,8.0,93,0.00,,,0.00,72,weatherlink.com 1.10,2013-01-10 19:25:00,
2013-01-10 12:40:00,26.1,24.0,31.27,North,360,3.0,8.0,93,0.00,,,0.00,72,weatherlink.com 1.10,2013-01-10 19:40:00,
2013-01-10 12:55:00,26.1,24.0,31.28,North,5,7.0,9.0,93,0.00,,,0.00,74,weatherlink.com 1.10,2013-01-10 19:55:00,
2013-01-10 13:10:00,26.0,24.0,31.29,North,11,5.0,7.0,93,0.00,,,0.00,56,weatherlink.com 1.10,2013-01-10 20:10:00,
2013-01-10 13:25:00,25.6,24.0,31.29,NNW,347,7.0,10.0,93,0.00,,,0.00,54,weatherlink.com 1.10,2013-01-10 20:25:00,
2013-01-10 13:55:00,25.6,24.0,31.29,NNE,24,2.0,6.0,93,0.00,,,0.00,62,weatherlink.com 1.10,2013-01-10 20:55:00,
2013-01-10 14:10:00,25.7,24.0,31.29,North,360,4.0,6.0,93,0.00,,,0.00,58,weatherlink.com 1.10,2013-01-10 21:10:00,
2013-01-10 14:25:00,25.7,24.0,31.29,North,355,6.0,8.0,93,0.00,,,0.00,65,weatherlink.com 1.10,2013-01-10 21:25:00,
2013-01-10 14:40:00,25.6,24.0,31.30,North,5,4.0,9.0,93,0.00,,,0.00,60,weatherlink.com 1.10,2013-01-10 21:40:00,
2013-01-10 14:55:00,25.6,24.0,31.31,North,355,6.0,9.0,93,0.00,,,0.00,58,weatherlink.com 1.10,2013-01-10 21:55:00,
2013-01-10 15:10:00,25.5,24.0,31.32,NNE,24,2.0,6.0,93,0.00,,,0.00,44,weatherlink.com 1.10,2013-01-10 22:10:00,
2013-01-10 15:25:00,25.5,24.0,31.32,NNW,340,4.0,5.0,93,0.00,,,0.00,37,weatherlink.com 1.10,2013-01-10 22:25:00,
2013-01-10 15:40:00,25.3,24.0,31.32,North,5,1.0,7.0,93,0.00,,,0.00,35,weatherlink.com 1.10,2013-01-10 22:40:00,
2013-01-10 15:55:00,25.2,24.0,31.32,NNE,30,3.0,7.0,93,0.00,,,0.00,30,weatherlink.com 1.10,2013-01-10 22:55:00,
2013-01-10 16:25:00,25.1,23.0,31.33,NE,43,2.0,9.0,93,0.00,,,0.00,16,weatherlink.com 1.10,2013-01-10 23:25:00,
2013-01-10 16:40:00,24.9,23.0,31.34,North,355,3.0,9.0,93,0.00,,,0.00,11,weatherlink.com 1.10,2013-01-10 23:40:00,
2013-01-10 16:55:00,24.7,23.0,31.34,North,11,6.0,10.0,93,0.00,,,0.00,0,weatherlink.com 1.10,2013-01-10 23:55:00,
2013-01-10 17:10:00,24.5,23.0,31.34,North,355,12.0,13.0,93,0.00,,,0.00,0,weatherlink.com 1.10,2013-01-11 00:10:00,
2013-01-10 17:25:00,24.2,23.0,31.34,NNE,25,8.0,15.0,93,0.00,,,0.00,0,weatherlink.com 1.10,2013-01-11 00:25:00,
2013-01-10 17:40:00,24.1,22.0,31.36,NNE,26,6.0,15.0,93,0.00,,,0.00,0,weatherlink.com 1.10,2013-01-11 00:40:00,
2013-01-10 17:56:00,23.9,22.0,31.36,North,9,4.0,15.0,93,0.00,,,0.00,0,weatherlink.com 1.10,2013-01-11 00:56:00,
2013-01-10 18:11:00,23.4,22.0,31.36,NE,35,4.0,12.0,93,0.00,,,0.00,0,weatherlink.com 1.10,2013-01-11 01:11:00,
2013-01-10 18:26:00,23.2,22.0,31.37,NNE,12,2.0,10.0,93,0.00,,,0.00,0,weatherlink.com 1.10,2013-01-11 01:26:00,
2013-01-10 18:56:00,21.7,20.0,31.37,East,96,6.0,15.0,91,0.00,,,0.00,0,weatherlink.com 1.10,2013-01-11 01:56:00,
2013-01-10 19:11:00,-999.0,-99.9,31.38,North,-999,-999.0,-999.0,-999,0.00,,,0.00,,weatherlink.com 1.10,2013-01-11 02:11:00,
2013-01-10 19:26:00,-999.0,-99.9,31.38,North,-999,-999.0,-999.0,-999,0.00,,,0.00,,weatherlink.com 1.10,2013-01-11 02:26:00,
2013-01-10 19:41:00,-999.0,-99.9,31.39,North,-999,-999.0,-999.0,-999,0.00,,,0.00,,weatherlink.com 1.10,2013-01-11 02:41:00,
2013-01-10 19:56:00,-999.0,-99.9,31.39,North,-999,-999.0,-999.0,-999,0.00,,,0.00,,weatherlink.com 1.10,2013-01-11 02:56:00,
2013-01-10 20:11:00,-999.0,-99.9,31.40,North,-999,-999.0,-999.0,-999,0.00,,,0.00,,weatherlink.com 1.10,2013-01-11 03:11:00,
2013-01-10 20:26:00,-999.0,-99.9,31.40,North,-999,-999.0,-999.0,-999,0.00,,,0.00,,weatherlink.com 1.10,2013-01-11 03:26:00,
2013-01-10 20:41:00,-999.0,-99.9,31.41,North,-999,-999.0,-999.0,-999,0.00,,,0.00,,weatherlink.com 1.10,2013-01-11 03:41:00,
2013-01-10 20:56:00,-999.0,-99.9,31.41,North,-999,-999.0,-999.0,-999,0.00,,,0.00,,weatherlink.com 1.10,2013-01-11 03:56:00,
2013-01-10 21:11:00,-999.0,-99.9,31.42,North,-999,-999.0,-999.0,-999,0.00,,,0.00,,weatherlink.com 1.10,2013-01-11 04:11:00,
2013-01-10 21:26:00,-999.0,-99.9,31.42,North,-999,-999.0,-999.0,-999,0.00,,,0.00,,weatherlink.com 1.10,2013-01-11 04:26:00,
2013-01-10 21:41:00,-999.0,-99.9,31.43,North,-999,-999.0,-999.0,-999,0.00,,,0.00,,weatherlink.com 1.10,2013-01-11 04:41:00,
2013-01-10 21:56:00,-999.0,-99.9,31.44,North,-999,-999.0,-999.0,-999,0.00,,,0.00,,weatherlink.com 1.10,2013-01-11 04:56:00,
2013-01-10 22:12:00,16.7,14.0,31.45,NNE,30,4.0,13.0,88,0.00,,,0.00,0,weatherlink.com 1.10,2013-01-11 05:12:00,
2013-01-10 22:27:00,16.4,14.0,31.46,NNE,22,1.0,16.0,88,0.00,,,0.00,0,weatherlink.com 1.10,2013-01-11 05:27:00,
2013-01-10 22:42:00,16.1,13.0,31.47,North,5,0.0,8.0,88,0.00,,,0.00,0,weatherlink.com 1.10,2013-01-11 05:42:00,
2013-01-10 22:57:00,15.8,13.0,31.48,North,11,0.0,3.0,89,0.00,,,0.00,0,weatherlink.com 1.10,2013-01-11 05:57:00,
2013-01-10 23:27:00,15.4,13.0,31.50,North,5,12.0,12.0,88,0.00,,,0.00,0,weatherlink.com 1.10,2013-01-11 06:27:00,
2013-01-10 23:42:00,15.0,12.0,31.51,ENE,64,0.0,5.0,88,0.00,,,0.00,0,weatherlink.com 1.10,2013-01-11 06:42:00,
2013-01-10 23:57:00,14.9,12.0,31.52,ENE,59,1.0,13.0,87,0.00,,,0.00,0,weatherlink.com 1.10,2013-01-11 06:57:00,